owner,sensor,date,latitude,longitude,air_pressure(mBar),qcFlag 
COMPS,ioos:station:USF.COMPS:EGK:1,2011-03-08T17:00:00Z,27.6010,-82.7510,1021.4,1111122 
COMPS,ioos:station:USF.COMPS:EGK:1,2011-03-08T17:06:00Z,27.6010,-82.7510,1021.24,1111122 
COMPS,ioos:station:USF.COMPS:EGK:1,2011-03-08T17:12:00Z,27.6010,-82.7510,1021.14,1111122 
COMPS,ioos:station:USF.COMPS:EGK:1,2011-03-08T17:18:00Z,27.6010,-82.7510,1021.1,1111122 
COMPS,ioos:station:USF.COMPS:EGK:1,2011-03-08T17:24:00Z,27.6010,-82.7510,1021.01,1111122 
COMPS,ioos:station:USF.COMPS:EGK:1,2011-03-08T17:30:00Z,27.6010,-82.7510,1020.97,1111122 
COMPS,ioos:station:USF.COMPS:EGK:1,2011-03-08T17:36:00Z,27.6010,-82.7510,1020.86,1111122 
COMPS,ioos:station:USF.COMPS:EGK:1,2011-03-08T17:42:00Z,27.6010,-82.7510,1020.88,1111122 
COMPS,ioos:station:USF.COMPS:EGK:1,2011-03-08T17:48:00Z,27.6010,-82.7510,1020.88,1111122 
COMPS,ioos:station:USF.COMPS:EGK:1,2011-03-08T17:54:00Z,27.6010,-82.7510,1020.85,1111122 
COMPS,ioos:station:USF.COMPS:EGK:1,2011-03-08T19:00:00Z,27.6010,-82.7510,1020.2,1111122 
COMPS,ioos:station:USF.COMPS:EGK:1,2011-03-08T19:06:00Z,27.6010,-82.7510,1020.09,1111122 
COMPS,ioos:station:USF.COMPS:EGK:1,2011-03-08T19:12:00Z,27.6010,-82.7510,1020.05,1111122 
COMPS,ioos:station:USF.COMPS:EGK:1,2011-03-08T19:18:00Z,27.6010,-82.7510,1020.02,1111122 
COMPS,ioos:station:USF.COMPS:EGK:1,2011-03-08T19:24:00Z,27.6010,-82.7510,1019.89,1111122 
COMPS,ioos:station:USF.COMPS:EGK:1,2011-03-08T19:30:00Z,27.6010,-82.7510,1019.86,1111122 
COMPS,ioos:station:USF.COMPS:EGK:1,2011-03-08T19:36:00Z,27.6010,-82.7510,1019.76,1111122 
COMPS,ioos:station:USF.COMPS:EGK:1,2011-03-08T19:42:00Z,27.6010,-82.7510,1019.66,1111122 
COMPS,ioos:station:USF.COMPS:EGK:1,2011-03-08T19:48:00Z,27.6010,-82.7510,1019.66,1111122 
COMPS,ioos:station:USF.COMPS:EGK:1,2011-03-08T19:54:00Z,27.6010,-82.7510,1019.66,1111122 
COMPS,ioos:station:USF.COMPS:EGK:1,2011-03-08T20:00:00Z,27.6010,-82.7510,1019.7,1111122 
COMPS,ioos:station:USF.COMPS:EGK:1,2011-03-08T21:00:00Z,27.6010,-82.7510,1019.5,1111122 
COMPS,ioos:station:USF.COMPS:EGK:1,2011-03-08T21:06:00Z,27.6010,-82.7510,1019.52,1111122 
COMPS,ioos:station:USF.COMPS:EGK:1,2011-03-08T21:12:00Z,27.6010,-82.7510,1019.49,1111122 
COMPS,ioos:station:USF.COMPS:EGK:1,2011-03-08T21:18:00Z,27.6010,-82.7510,1019.42,1111122 
COMPS,ioos:station:USF.COMPS:EGK:1,2011-03-08T21:24:00Z,27.6010,-82.7510,1019.4,1111122 
COMPS,ioos:station:USF.COMPS:EGK:1,2011-03-08T21:30:00Z,27.6010,-82.7510,1019.48,1111122 
COMPS,ioos:station:USF.COMPS:EGK:1,2011-03-08T21:36:00Z,27.6010,-82.7510,1019.53,1111122 
COMPS,ioos:station:USF.COMPS:EGK:1,2011-03-08T21:42:00Z,27.6010,-82.7510,1019.52,1111122 
COMPS,ioos:station:USF.COMPS:EGK:1,2011-03-08T21:48:00Z,27.6010,-82.7510,1019.6,1111122 
COMPS,ioos:station:USF.COMPS:EGK:1,2011-03-08T21:54:00Z,27.6010,-82.7510,1019.61,1111122 
COMPS,ioos:station:USF.COMPS:EGK:1,2011-03-08T22:00:00Z,27.6010,-82.7510,1019.6,1111122 
COMPS,ioos:station:USF.COMPS:EGK:1,2011-03-08T23:00:00Z,27.6010,-82.7510,1019.8,1111122 
COMPS,ioos:station:USF.COMPS:EGK:1,2011-03-08T23:06:00Z,27.6010,-82.7510,1019.74,1111122 
COMPS,ioos:station:USF.COMPS:EGK:1,2011-03-08T23:12:00Z,27.6010,-82.7510,1019.73,1111122 
COMPS,ioos:station:USF.COMPS:EGK:1,2011-03-08T23:18:00Z,27.6010,-82.7510,1019.65,1111122 
COMPS,ioos:station:USF.COMPS:EGK:1,2011-03-08T23:24:00Z,27.6010,-82.7510,1019.61,1111122 
COMPS,ioos:station:USF.COMPS:EGK:1,2011-03-08T23:30:00Z,27.6010,-82.7510,1019.62,1111122 
COMPS,ioos:station:USF.COMPS:EGK:1,2011-03-08T23:36:00Z,27.6010,-82.7510,1019.64,1111122 
COMPS,ioos:station:USF.COMPS:EGK:1,2011-03-08T23:42:00Z,27.6010,-82.7510,1019.7,1111122 
COMPS,ioos:station:USF.COMPS:EGK:1,2011-03-08T23:48:00Z,27.6010,-82.7510,1019.74,1111122 
COMPS,ioos:station:USF.COMPS:EGK:1,2011-03-08T23:54:00Z,27.6010,-82.7510,1019.73,1111122 
COMPS,ioos:station:USF.COMPS:EGK:1,2011-03-09T00:00:00Z,27.6010,-82.7510,1019.7,1111122 
COMPS,ioos:station:USF.COMPS:EGK:1,2011-03-09T01:00:00Z,27.6010,-82.7510,1019.93,1111122 
COMPS,ioos:station:USF.COMPS:EGK:1,2011-03-09T01:06:00Z,27.6010,-82.7510,1019.94,1111122 
COMPS,ioos:station:USF.COMPS:EGK:1,2011-03-09T01:12:00Z,27.6010,-82.7510,1019.94,1111122 
COMPS,ioos:station:USF.COMPS:EGK:1,2011-03-09T01:18:00Z,27.6010,-82.7510,1020.0,1111122 
COMPS,ioos:station:USF.COMPS:EGK:1,2011-03-09T01:24:00Z,27.6010,-82.7510,1020.04,1111122 
COMPS,ioos:station:USF.COMPS:EGK:1,2011-03-09T01:30:00Z,27.6010,-82.7510,1020.13,1111122 
COMPS,ioos:station:USF.COMPS:EGK:1,2011-03-09T01:36:00Z,27.6010,-82.7510,1020.17,1111122 
COMPS,ioos:station:USF.COMPS:EGK:1,2011-03-09T01:42:00Z,27.6010,-82.7510,1020.28,1111122 
COMPS,ioos:station:USF.COMPS:EGK:1,2011-03-09T01:48:00Z,27.6010,-82.7510,1020.3,1111122 
COMPS,ioos:station:USF.COMPS:EGK:1,2011-03-09T01:54:00Z,27.6010,-82.7510,1020.3,1111122 
COMPS,ioos:station:USF.COMPS:EGK:1,2011-03-09T02:00:00Z,27.6010,-82.7510,1020.3,1111122 
COMPS,ioos:station:USF.COMPS:EGK:1,2011-03-09T03:00:00Z,27.6010,-82.7510,1020.6,1111122 
COMPS,ioos:station:USF.COMPS:EGK:1,2011-03-09T04:00:00Z,27.6010,-82.7510,1021.1,1111122 
COMPS,ioos:station:USF.COMPS:EGK:1,2011-03-09T05:00:00Z,27.6010,-82.7510,1020.9,1111122 
COMPS,ioos:station:USF.COMPS:EGK:1,2011-03-09T06:00:00Z,27.6010,-82.7510,1020.6,1111122 
COMPS,ioos:station:USF.COMPS:EGK:1,2011-03-09T07:00:00Z,27.6010,-82.7510,1020.3,1111122 
COMPS,ioos:station:USF.COMPS:EGK:1,2011-03-09T07:06:00Z,27.6010,-82.7510,1020.2,1111122 
COMPS,ioos:station:USF.COMPS:EGK:1,2011-03-09T07:12:00Z,27.6010,-82.7510,1020.13,1111122 
COMPS,ioos:station:USF.COMPS:EGK:1,2011-03-09T07:18:00Z,27.6010,-82.7510,1019.97,1111122 
COMPS,ioos:station:USF.COMPS:EGK:1,2011-03-09T07:24:00Z,27.6010,-82.7510,1019.88,1111122 
COMPS,ioos:station:USF.COMPS:EGK:1,2011-03-09T07:30:00Z,27.6010,-82.7510,1019.82,1111122 
COMPS,ioos:station:USF.COMPS:EGK:1,2011-03-09T07:36:00Z,27.6010,-82.7510,1019.78,1111122 
COMPS,ioos:station:USF.COMPS:EGK:1,2011-03-09T07:42:00Z,27.6010,-82.7510,1019.64,1111122 
COMPS,ioos:station:USF.COMPS:EGK:1,2011-03-09T07:48:00Z,27.6010,-82.7510,1019.62,1111122 
COMPS,ioos:station:USF.COMPS:EGK:1,2011-03-09T07:54:00Z,27.6010,-82.7510,1019.54,1111122 
COMPS,ioos:station:USF.COMPS:EGK:1,2011-03-09T08:00:00Z,27.6010,-82.7510,1019.5,1111122 
COMPS,ioos:station:USF.COMPS:EGK:1,2011-03-09T09:00:00Z,27.6010,-82.7510,1019.0,1111122 
COMPS,ioos:station:USF.COMPS:EGK:1,2011-03-09T09:06:00Z,27.6010,-82.7510,1018.97,1111122 
COMPS,ioos:station:USF.COMPS:EGK:1,2011-03-09T09:12:00Z,27.6010,-82.7510,1019.0,1111122 
COMPS,ioos:station:USF.COMPS:EGK:1,2011-03-09T09:18:00Z,27.6010,-82.7510,1019.0,1111122 
COMPS,ioos:station:USF.COMPS:EGK:1,2011-03-09T09:24:00Z,27.6010,-82.7510,1019.0,1111122 
COMPS,ioos:station:USF.COMPS:EGK:1,2011-03-09T09:30:00Z,27.6010,-82.7510,1018.98,1111122 
COMPS,ioos:station:USF.COMPS:EGK:1,2011-03-09T09:36:00Z,27.6010,-82.7510,1019.05,1111122 
COMPS,ioos:station:USF.COMPS:EGK:1,2011-03-09T09:42:00Z,27.6010,-82.7510,1018.96,1111122 
COMPS,ioos:station:USF.COMPS:EGK:1,2011-03-09T09:48:00Z,27.6010,-82.7510,1019.0,1111122 
COMPS,ioos:station:USF.COMPS:EGK:1,2011-03-09T09:54:00Z,27.6010,-82.7510,1019.08,1111122 
COMPS,ioos:station:USF.COMPS:EGK:1,2011-03-09T10:00:00Z,27.6010,-82.7510,1019.1,1111122 
COMPS,ioos:station:USF.COMPS:EGK:1,2011-03-09T11:00:00Z,27.6010,-82.7510,1019.6,1111122 
COMPS,ioos:station:USF.COMPS:EGK:1,2011-03-09T12:00:00Z,27.6010,-82.7510,1020.0,1111122 
COMPS,ioos:station:USF.COMPS:EGK:1,2011-03-09T12:06:00Z,27.6010,-82.7510,1020.05,1111122 
COMPS,ioos:station:USF.COMPS:EGK:1,2011-03-09T12:12:00Z,27.6010,-82.7510,1020.09,1111122 
COMPS,ioos:station:USF.COMPS:EGK:1,2011-03-09T12:18:00Z,27.6010,-82.7510,1020.12,1111122 
COMPS,ioos:station:USF.COMPS:EGK:1,2011-03-09T12:24:00Z,27.6010,-82.7510,1020.18,1111122 
COMPS,ioos:station:USF.COMPS:EGK:1,2011-03-09T12:30:00Z,27.6010,-82.7510,1020.22,1111122 
COMPS,ioos:station:USF.COMPS:EGK:1,2011-03-09T12:36:00Z,27.6010,-82.7510,1020.32,1111122 
COMPS,ioos:station:USF.COMPS:EGK:1,2011-03-09T12:42:00Z,27.6010,-82.7510,1020.34,1111122 
COMPS,ioos:station:USF.COMPS:EGK:1,2011-03-09T12:48:00Z,27.6010,-82.7510,1020.48,1111122 
COMPS,ioos:station:USF.COMPS:EGK:1,2011-03-09T12:54:00Z,27.6010,-82.7510,1020.58,1111122 
COMPS,ioos:station:USF.COMPS:EGK:1,2011-03-09T14:00:00Z,27.6010,-82.7510,1020.9,1111122 
COMPS,ioos:station:USF.COMPS:EGK:1,2011-03-09T15:00:00Z,27.6010,-82.7510,1020.8,1111122 
COMPS,ioos:station:USF.COMPS:EGK:1,2011-03-09T16:00:00Z,27.6010,-82.7510,1020.4,1111122 
COMPS,ioos:station:USF.COMPS:EGK:1,2011-03-09T17:00:00Z,27.6010,-82.7510,1019.8,1111122 
COMPS,ioos:station:USF.COMPS:EGK:1,2011-03-09T18:00:00Z,27.6010,-82.7510,1019.6,1111122 
COMPS,ioos:station:USF.COMPS:EGK:1,2011-03-09T19:00:00Z,27.6010,-82.7510,1018.9,1111122 
COMPS,ioos:station:USF.COMPS:EGK:1,2011-03-09T20:00:00Z,27.6010,-82.7510,1018.9,1111122 
COMPS,ioos:station:USF.COMPS:EGK:1,2011-03-09T22:00:00Z,27.6010,-82.7510,1018.9,1111122 
COMPS,ioos:station:USF.COMPS:EGK:1,2011-03-10T00:00:00Z,27.6010,-82.7510,1018.7,1111122 
COMPS,ioos:station:USF.COMPS:EGK:1,2011-03-10T00:06:00Z,27.6010,-82.7510,1018.77,1111122 
COMPS,ioos:station:USF.COMPS:EGK:1,2011-03-10T00:12:00Z,27.6010,-82.7510,1018.85,1111122 
COMPS,ioos:station:USF.COMPS:EGK:1,2011-03-10T00:18:00Z,27.6010,-82.7510,1018.89,1111122 
COMPS,ioos:station:USF.COMPS:EGK:1,2011-03-10T00:24:00Z,27.6010,-82.7510,1018.93,1111122 
COMPS,ioos:station:USF.COMPS:EGK:1,2011-03-10T00:30:00Z,27.6010,-82.7510,1019.02,1111122 
COMPS,ioos:station:USF.COMPS:EGK:1,2011-03-10T00:36:00Z,27.6010,-82.7510,1019.05,1111122 
COMPS,ioos:station:USF.COMPS:EGK:1,2011-03-10T00:42:00Z,27.6010,-82.7510,1019.09,1111122 
COMPS,ioos:station:USF.COMPS:EGK:1,2011-03-10T00:48:00Z,27.6010,-82.7510,1019.09,1111122 
COMPS,ioos:station:USF.COMPS:EGK:1,2011-03-10T00:54:00Z,27.6010,-82.7510,1019.08,1111122 
COMPS,ioos:station:USF.COMPS:EGK:1,2011-03-10T01:00:00Z,27.6010,-82.7510,1019.1,1111122 
COMPS,ioos:station:USF.COMPS:EGK:1,2011-03-10T01:06:00Z,27.6010,-82.7510,1018.93,1111122 
COMPS,ioos:station:USF.COMPS:EGK:1,2011-03-10T01:12:00Z,27.6010,-82.7510,1018.94,1111122 
COMPS,ioos:station:USF.COMPS:EGK:1,2011-03-10T01:18:00Z,27.6010,-82.7510,1019.13,1111122 
COMPS,ioos:station:USF.COMPS:EGK:1,2011-03-10T01:24:00Z,27.6010,-82.7510,1019.18,1111122 
COMPS,ioos:station:USF.COMPS:EGK:1,2011-03-10T01:30:00Z,27.6010,-82.7510,1019.21,1111122 
COMPS,ioos:station:USF.COMPS:EGK:1,2011-03-10T01:36:00Z,27.6010,-82.7510,1019.21,1111122 
COMPS,ioos:station:USF.COMPS:EGK:1,2011-03-10T01:42:00Z,27.6010,-82.7510,1019.21,1111122 
COMPS,ioos:station:USF.COMPS:EGK:1,2011-03-10T01:48:00Z,27.6010,-82.7510,1019.2,1111122 
COMPS,ioos:station:USF.COMPS:EGK:1,2011-03-10T01:54:00Z,27.6010,-82.7510,1019.18,1111122 
COMPS,ioos:station:USF.COMPS:EGK:1,2011-03-10T02:00:00Z,27.6010,-82.7510,1019.2,1111122 
COMPS,ioos:station:USF.COMPS:EGK:1,2011-03-10T03:00:00Z,27.6010,-82.7510,1019.7,1111122 
COMPS,ioos:station:USF.COMPS:EGK:1,2011-03-10T04:00:00Z,27.6010,-82.7510,1020.0,1111122 
COMPS,ioos:station:USF.COMPS:EGK:1,2011-03-10T05:00:00Z,27.6010,-82.7510,1021.0,1111122 
COMPS,ioos:station:USF.COMPS:EGK:1,2011-03-10T06:00:00Z,27.6010,-82.7510,1019.8,1111122 
COMPS,ioos:station:USF.COMPS:EGK:1,2011-03-10T07:00:00Z,27.6010,-82.7510,1018.8,1111122 
COMPS,ioos:station:USF.COMPS:EGK:1,2011-03-10T08:00:00Z,27.6010,-82.7510,1018.4,1111122 
COMPS,ioos:station:USF.COMPS:EGK:1,2011-03-10T09:00:00Z,27.6010,-82.7510,1017.5,1111122 
COMPS,ioos:station:USF.COMPS:EGK:1,2011-03-10T10:00:00Z,27.6010,-82.7510,1017.3,1111122 
COMPS,ioos:station:USF.COMPS:EGK:1,2011-03-10T10:06:00Z,27.6010,-82.7510,1017.41,1111122 
COMPS,ioos:station:USF.COMPS:EGK:1,2011-03-10T10:12:00Z,27.6010,-82.7510,1017.36,1111122 
COMPS,ioos:station:USF.COMPS:EGK:1,2011-03-10T10:18:00Z,27.6010,-82.7510,1017.41,1111122 
COMPS,ioos:station:USF.COMPS:EGK:1,2011-03-10T10:24:00Z,27.6010,-82.7510,1017.49,1111122 
COMPS,ioos:station:USF.COMPS:EGK:1,2011-03-10T10:30:00Z,27.6010,-82.7510,1017.46,1111122 
COMPS,ioos:station:USF.COMPS:EGK:1,2011-03-10T10:36:00Z,27.6010,-82.7510,1017.66,1111122 
COMPS,ioos:station:USF.COMPS:EGK:1,2011-03-10T10:42:00Z,27.6010,-82.7510,1017.8,1111122 
COMPS,ioos:station:USF.COMPS:EGK:1,2011-03-10T10:48:00Z,27.6010,-82.7510,1017.93,1111122 
COMPS,ioos:station:USF.COMPS:EGK:1,2011-03-10T10:54:00Z,27.6010,-82.7510,1018.5,1111122 
COMPS,ioos:station:USF.COMPS:EGK:1,2011-03-10T11:00:00Z,27.6010,-82.7510,1018.5,1111122 
COMPS,ioos:station:USF.COMPS:EGK:1,2011-03-10T12:00:00Z,27.6010,-82.7510,1020.8,1111122 
COMPS,ioos:station:USF.COMPS:EGK:1,2011-03-10T12:06:00Z,27.6010,-82.7510,1020.45,1111122 
COMPS,ioos:station:USF.COMPS:EGK:1,2011-03-10T12:12:00Z,27.6010,-82.7510,1020.26,1111122 
COMPS,ioos:station:USF.COMPS:EGK:1,2011-03-10T12:18:00Z,27.6010,-82.7510,1020.45,1111122 
COMPS,ioos:station:USF.COMPS:EGK:1,2011-03-10T12:24:00Z,27.6010,-82.7510,1021.08,1111122 
COMPS,ioos:station:USF.COMPS:EGK:1,2011-03-10T12:30:00Z,27.6010,-82.7510,1021.02,1111122 
COMPS,ioos:station:USF.COMPS:EGK:1,2011-03-10T12:36:00Z,27.6010,-82.7510,1020.66,1111122 
COMPS,ioos:station:USF.COMPS:EGK:1,2011-03-10T12:42:00Z,27.6010,-82.7510,1020.25,1111122 
COMPS,ioos:station:USF.COMPS:EGK:1,2011-03-10T12:48:00Z,27.6010,-82.7510,1020.3,1111122 
COMPS,ioos:station:USF.COMPS:EGK:1,2011-03-10T12:54:00Z,27.6010,-82.7510,1020.38,1111122 
COMPS,ioos:station:USF.COMPS:EGK:1,2011-03-10T13:00:00Z,27.6010,-82.7510,1020.4,1111122 
COMPS,ioos:station:USF.COMPS:EGK:1,2011-03-10T13:06:00Z,27.6010,-82.7510,1020.06,1111122 
COMPS,ioos:station:USF.COMPS:EGK:1,2011-03-10T13:12:00Z,27.6010,-82.7510,1019.77,1111122 
COMPS,ioos:station:USF.COMPS:EGK:1,2011-03-10T13:18:00Z,27.6010,-82.7510,1019.66,1111122 
COMPS,ioos:station:USF.COMPS:EGK:1,2011-03-10T13:24:00Z,27.6010,-82.7510,1019.58,1111122 
COMPS,ioos:station:USF.COMPS:EGK:1,2011-03-10T13:30:00Z,27.6010,-82.7510,1019.46,1111122 
COMPS,ioos:station:USF.COMPS:EGK:1,2011-03-10T13:36:00Z,27.6010,-82.7510,1019.22,1111122 
COMPS,ioos:station:USF.COMPS:EGK:1,2011-03-10T13:42:00Z,27.6010,-82.7510,1018.8,1111122 
COMPS,ioos:station:USF.COMPS:EGK:1,2011-03-10T13:48:00Z,27.6010,-82.7510,1018.32,1111122 
COMPS,ioos:station:USF.COMPS:EGK:1,2011-03-10T13:54:00Z,27.6010,-82.7510,1018.22,1111122 
COMPS,ioos:station:USF.COMPS:EGK:1,2011-03-10T14:00:00Z,27.6010,-82.7510,1018.2,1111122 
COMPS,ioos:station:USF.COMPS:EGK:1,2011-03-10T14:06:00Z,27.6010,-82.7510,1016.81,1111122 
COMPS,ioos:station:USF.COMPS:EGK:1,2011-03-10T14:12:00Z,27.6010,-82.7510,1016.48,1111122 
COMPS,ioos:station:USF.COMPS:EGK:1,2011-03-10T14:18:00Z,27.6010,-82.7510,1016.26,1111122 
COMPS,ioos:station:USF.COMPS:EGK:1,2011-03-10T14:24:00Z,27.6010,-82.7510,1016.89,1111122 
COMPS,ioos:station:USF.COMPS:EGK:1,2011-03-10T14:30:00Z,27.6010,-82.7510,1017.54,1111122 
COMPS,ioos:station:USF.COMPS:EGK:1,2011-03-10T14:36:00Z,27.6010,-82.7510,1017.49,1111122 
COMPS,ioos:station:USF.COMPS:EGK:1,2011-03-10T14:42:00Z,27.6010,-82.7510,1017.81,1111122 
COMPS,ioos:station:USF.COMPS:EGK:1,2011-03-10T14:48:00Z,27.6010,-82.7510,1017.88,1111122 
COMPS,ioos:station:USF.COMPS:EGK:1,2011-03-10T14:54:00Z,27.6010,-82.7510,1018.24,1111122 
COMPS,ioos:station:USF.COMPS:EGK:1,2011-03-10T15:00:00Z,27.6010,-82.7510,1018.2,1111122 
COMPS,ioos:station:USF.COMPS:EGK:1,2011-03-10T15:06:00Z,27.6010,-82.7510,1018.29,1111122 
COMPS,ioos:station:USF.COMPS:EGK:1,2011-03-10T15:12:00Z,27.6010,-82.7510,1018.36,1111122 
COMPS,ioos:station:USF.COMPS:EGK:1,2011-03-10T15:18:00Z,27.6010,-82.7510,1018.57,1111122 
COMPS,ioos:station:USF.COMPS:EGK:1,2011-03-10T15:24:00Z,27.6010,-82.7510,1018.7,1111122 
COMPS,ioos:station:USF.COMPS:EGK:1,2011-03-10T15:30:00Z,27.6010,-82.7510,1018.44,1111122 
COMPS,ioos:station:USF.COMPS:EGK:1,2011-03-10T15:36:00Z,27.6010,-82.7510,1017.56,1111122 
COMPS,ioos:station:USF.COMPS:EGK:1,2011-03-10T15:42:00Z,27.6010,-82.7510,1018.26,1111122 
COMPS,ioos:station:USF.COMPS:EGK:1,2011-03-10T15:48:00Z,27.6010,-82.7510,1018.28,1111122 
COMPS,ioos:station:USF.COMPS:EGK:1,2011-03-10T15:54:00Z,27.6010,-82.7510,1018.22,1111122 
COMPS,ioos:station:USF.COMPS:EGK:1,2011-03-10T16:00:00Z,27.6010,-82.7510,1018.2,1111122 
COMPS,ioos:station:USF.COMPS:EGK:1,2011-03-10T17:00:00Z,27.6010,-82.7510,1018.7,1111122 
COMPS,ioos:station:USF.COMPS:EGK:1,2011-03-10T17:06:00Z,27.6010,-82.7510,1018.44,1111122 
COMPS,ioos:station:USF.COMPS:EGK:1,2011-03-10T17:12:00Z,27.6010,-82.7510,1018.28,1111122 
COMPS,ioos:station:USF.COMPS:EGK:1,2011-03-10T17:18:00Z,27.6010,-82.7510,1018.18,1111122 
COMPS,ioos:station:USF.COMPS:EGK:1,2011-03-10T17:24:00Z,27.6010,-82.7510,1018.29,1111122 
COMPS,ioos:station:USF.COMPS:EGK:1,2011-03-10T17:30:00Z,27.6010,-82.7510,1018.37,1111122 
COMPS,ioos:station:USF.COMPS:EGK:1,2011-03-10T17:36:00Z,27.6010,-82.7510,1018.37,1111122 
COMPS,ioos:station:USF.COMPS:EGK:1,2011-03-10T17:42:00Z,27.6010,-82.7510,1018.21,1111122 
COMPS,ioos:station:USF.COMPS:EGK:1,2011-03-10T17:48:00Z,27.6010,-82.7510,1018.22,1111122 
COMPS,ioos:station:USF.COMPS:EGK:1,2011-03-10T17:54:00Z,27.6010,-82.7510,1018.16,1111122 
COMPS,ioos:station:USF.COMPS:EGK:1,2011-03-10T18:00:00Z,27.6010,-82.7510,1018.2,1111122 
COMPS,ioos:station:USF.COMPS:EGK:1,2011-03-10T19:00:00Z,27.6010,-82.7510,1018.1,1111122 
COMPS,ioos:station:USF.COMPS:EGK:1,2011-03-10T21:00:00Z,27.6010,-82.7510,1017.93,1111122 
COMPS,ioos:station:USF.COMPS:EGK:1,2011-03-10T21:06:00Z,27.6010,-82.7510,1017.84,1111122 
COMPS,ioos:station:USF.COMPS:EGK:1,2011-03-10T21:12:00Z,27.6010,-82.7510,1017.82,1111122 
COMPS,ioos:station:USF.COMPS:EGK:1,2011-03-10T21:18:00Z,27.6010,-82.7510,1017.74,1111122 
COMPS,ioos:station:USF.COMPS:EGK:1,2011-03-10T21:24:00Z,27.6010,-82.7510,1017.72,1111122 
COMPS,ioos:station:USF.COMPS:EGK:1,2011-03-10T21:30:00Z,27.6010,-82.7510,1017.68,1111122 
COMPS,ioos:station:USF.COMPS:EGK:1,2011-03-10T21:36:00Z,27.6010,-82.7510,1017.69,1111122 
COMPS,ioos:station:USF.COMPS:EGK:1,2011-03-10T21:42:00Z,27.6010,-82.7510,1017.76,1111122 
COMPS,ioos:station:USF.COMPS:EGK:1,2011-03-10T21:48:00Z,27.6010,-82.7510,1017.77,1111122 
COMPS,ioos:station:USF.COMPS:EGK:1,2011-03-10T21:54:00Z,27.6010,-82.7510,1017.78,1111122 
COMPS,ioos:station:USF.COMPS:EGK:1,2011-03-10T23:00:00Z,27.6010,-82.7510,1018.3,1111122 
COMPS,ioos:station:USF.COMPS:EGK:1,2011-03-11T00:00:00Z,27.6010,-82.7510,1018.7,1111122 
COMPS,ioos:station:USF.COMPS:EGK:1,2011-03-11T00:06:00Z,27.6010,-82.7510,1018.74,1111122 
COMPS,ioos:station:USF.COMPS:EGK:1,2011-03-11T00:12:00Z,27.6010,-82.7510,1018.85,1111122 
COMPS,ioos:station:USF.COMPS:EGK:1,2011-03-11T00:18:00Z,27.6010,-82.7510,1018.85,1111122 
COMPS,ioos:station:USF.COMPS:EGK:1,2011-03-11T00:24:00Z,27.6010,-82.7510,1018.8,1111122 
COMPS,ioos:station:USF.COMPS:EGK:1,2011-03-11T00:30:00Z,27.6010,-82.7510,1018.88,1111122 
COMPS,ioos:station:USF.COMPS:EGK:1,2011-03-11T00:36:00Z,27.6010,-82.7510,1018.96,1111122 
COMPS,ioos:station:USF.COMPS:EGK:1,2011-03-11T00:42:00Z,27.6010,-82.7510,1019.01,1111122 
COMPS,ioos:station:USF.COMPS:EGK:1,2011-03-11T00:48:00Z,27.6010,-82.7510,1019.02,1111122 
COMPS,ioos:station:USF.COMPS:EGK:1,2011-03-11T00:54:00Z,27.6010,-82.7510,1019.16,1111122 
COMPS,ioos:station:USF.COMPS:EGK:1,2011-03-11T01:00:00Z,27.6010,-82.7510,1019.2,1111122 
COMPS,ioos:station:USF.COMPS:EGK:1,2011-03-11T01:06:00Z,27.6010,-82.7510,1019.26,1111122 
COMPS,ioos:station:USF.COMPS:EGK:1,2011-03-11T01:12:00Z,27.6010,-82.7510,1019.33,1111122 
COMPS,ioos:station:USF.COMPS:EGK:1,2011-03-11T01:18:00Z,27.6010,-82.7510,1019.33,1111122 
COMPS,ioos:station:USF.COMPS:EGK:1,2011-03-11T01:24:00Z,27.6010,-82.7510,1019.41,1111122 
COMPS,ioos:station:USF.COMPS:EGK:1,2011-03-11T01:30:00Z,27.6010,-82.7510,1019.45,1111122 
COMPS,ioos:station:USF.COMPS:EGK:1,2011-03-11T01:36:00Z,27.6010,-82.7510,1019.54,1111122 
COMPS,ioos:station:USF.COMPS:EGK:1,2011-03-11T01:42:00Z,27.6010,-82.7510,1019.64,1111122 
COMPS,ioos:station:USF.COMPS:EGK:1,2011-03-11T01:48:00Z,27.6010,-82.7510,1019.65,1111122 
COMPS,ioos:station:USF.COMPS:EGK:1,2011-03-11T01:54:00Z,27.6010,-82.7510,1019.7,1111122 
COMPS,ioos:station:USF.COMPS:EGK:1,2011-03-11T02:00:00Z,27.6010,-82.7510,1019.7,1111122 
COMPS,ioos:station:USF.COMPS:EGK:1,2011-03-11T02:06:00Z,27.6010,-82.7510,1019.86,1111122 
COMPS,ioos:station:USF.COMPS:EGK:1,2011-03-11T02:12:00Z,27.6010,-82.7510,1020.01,1111122 
COMPS,ioos:station:USF.COMPS:EGK:1,2011-03-11T02:18:00Z,27.6010,-82.7510,1020.04,1111122 
COMPS,ioos:station:USF.COMPS:EGK:1,2011-03-11T02:24:00Z,27.6010,-82.7510,1020.08,1111122 
COMPS,ioos:station:USF.COMPS:EGK:1,2011-03-11T02:30:00Z,27.6010,-82.7510,1020.05,1111122 
COMPS,ioos:station:USF.COMPS:EGK:1,2011-03-11T02:36:00Z,27.6010,-82.7510,1020.12,1111122 
COMPS,ioos:station:USF.COMPS:EGK:1,2011-03-11T02:42:00Z,27.6010,-82.7510,1020.2,1111122 
COMPS,ioos:station:USF.COMPS:EGK:1,2011-03-11T02:48:00Z,27.6010,-82.7510,1020.21,1111122 
COMPS,ioos:station:USF.COMPS:EGK:1,2011-03-11T02:54:00Z,27.6010,-82.7510,1020.21,1111122 
COMPS,ioos:station:USF.COMPS:EGK:1,2011-03-11T03:00:00Z,27.6010,-82.7510,1020.2,1111122 
COMPS,ioos:station:USF.COMPS:EGK:1,2011-03-11T03:06:00Z,27.6010,-82.7510,1020.3,1111122 
COMPS,ioos:station:USF.COMPS:EGK:1,2011-03-11T03:12:00Z,27.6010,-82.7510,1020.22,1111122 
COMPS,ioos:station:USF.COMPS:EGK:1,2011-03-11T03:18:00Z,27.6010,-82.7510,1020.25,1111122 
COMPS,ioos:station:USF.COMPS:EGK:1,2011-03-11T03:24:00Z,27.6010,-82.7510,1020.28,1111122 
COMPS,ioos:station:USF.COMPS:EGK:1,2011-03-11T03:30:00Z,27.6010,-82.7510,1020.25,1111122 
COMPS,ioos:station:USF.COMPS:EGK:1,2011-03-11T03:36:00Z,27.6010,-82.7510,1020.21,1111122 
COMPS,ioos:station:USF.COMPS:EGK:1,2011-03-11T03:42:00Z,27.6010,-82.7510,1020.24,1111122 
COMPS,ioos:station:USF.COMPS:EGK:1,2011-03-11T03:48:00Z,27.6010,-82.7510,1020.3,1111122 
COMPS,ioos:station:USF.COMPS:EGK:1,2011-03-11T03:54:00Z,27.6010,-82.7510,1020.37,1111122 
COMPS,ioos:station:USF.COMPS:EGK:1,2011-03-11T04:00:00Z,27.6010,-82.7510,1020.4,1111122 
COMPS,ioos:station:USF.COMPS:EGK:1,2011-03-11T04:06:00Z,27.6010,-82.7510,1020.24,1111122 
COMPS,ioos:station:USF.COMPS:EGK:1,2011-03-11T04:12:00Z,27.6010,-82.7510,1020.3,1111122 
COMPS,ioos:station:USF.COMPS:EGK:1,2011-03-11T04:18:00Z,27.6010,-82.7510,1020.3,1111122 
COMPS,ioos:station:USF.COMPS:EGK:1,2011-03-11T04:24:00Z,27.6010,-82.7510,1020.29,1111122 
COMPS,ioos:station:USF.COMPS:EGK:1,2011-03-11T04:30:00Z,27.6010,-82.7510,1020.28,1111122 
COMPS,ioos:station:USF.COMPS:EGK:1,2011-03-11T04:36:00Z,27.6010,-82.7510,1020.3,1111122 
COMPS,ioos:station:USF.COMPS:EGK:1,2011-03-11T04:42:00Z,27.6010,-82.7510,1020.32,1111122 
COMPS,ioos:station:USF.COMPS:EGK:1,2011-03-11T04:48:00Z,27.6010,-82.7510,1020.29,1111122 
COMPS,ioos:station:USF.COMPS:EGK:1,2011-03-11T04:54:00Z,27.6010,-82.7510,1020.25,1111122 
COMPS,ioos:station:USF.COMPS:EGK:1,2011-03-11T05:00:00Z,27.6010,-82.7510,1020.3,1111122 
COMPS,ioos:station:USF.COMPS:EGK:1,2011-03-11T05:06:00Z,27.6010,-82.7510,1020.12,1111122 
COMPS,ioos:station:USF.COMPS:EGK:1,2011-03-11T05:12:00Z,27.6010,-82.7510,1020.17,1111122 
COMPS,ioos:station:USF.COMPS:EGK:1,2011-03-11T05:18:00Z,27.6010,-82.7510,1020.2,1111122 
COMPS,ioos:station:USF.COMPS:EGK:1,2011-03-11T05:24:00Z,27.6010,-82.7510,1020.32,1111122 
COMPS,ioos:station:USF.COMPS:EGK:1,2011-03-11T05:30:00Z,27.6010,-82.7510,1020.54,1111122 
COMPS,ioos:station:USF.COMPS:EGK:1,2011-03-11T05:36:00Z,27.6010,-82.7510,1020.57,1111122 
COMPS,ioos:station:USF.COMPS:EGK:1,2011-03-11T05:42:00Z,27.6010,-82.7510,1020.56,1111122 
COMPS,ioos:station:USF.COMPS:EGK:1,2011-03-11T05:48:00Z,27.6010,-82.7510,1020.45,1111122 
COMPS,ioos:station:USF.COMPS:EGK:1,2011-03-11T05:54:00Z,27.6010,-82.7510,1020.25,1111122 
COMPS,ioos:station:USF.COMPS:EGK:1,2011-03-11T06:00:00Z,27.6010,-82.7510,1020.3,1111122 
COMPS,ioos:station:USF.COMPS:EGK:1,2011-03-11T07:00:00Z,27.6010,-82.7510,1020.4,1111122 
COMPS,ioos:station:USF.COMPS:EGK:1,2011-03-11T07:06:00Z,27.6010,-82.7510,1020.49,1111122 
COMPS,ioos:station:USF.COMPS:EGK:1,2011-03-11T07:12:00Z,27.6010,-82.7510,1020.37,1111122 